Theta_e
294 291 289 289 291 292 293 293 291 290 291 289 289 288 286 287 286 287 287 289 289 290 288 290 290 289 291 292 293 295 289 290 290 291 292 292 292 293 293 295 299 301 304 307 308 311 313 315 317 319 320 321 321 322 323 323 324 325 326 325 324 326 326 327 328 329 329 328 329 329 328 327 329 328 329 329 330 330 331 330 329 329 328 328 327 327
294 289 288 290 292 293 293 289 289 288 289 289 287 287 284 286 287 287 290 290 288 289 286 286 286 288 289 292 293 294 290 292 293 292 291 292 292 293 293 293 294 297 299 300 301 301 308 312 314 316 318 318 319 320 321 322 323 324 325 325 326 327 325 326 327 328 329 330 330 329 329 329 330 329 327 328 329 330 330 329 329 329 328 329 329 327
288 288 290 291 292 291 290 290 289 289 288 287 287 285 284 285 286 287 288 288 288 288 287 285 286 288 290 291 293 292 292 294 294 294 295 295 294 293 293 293 294 294 295 296 297 299 302 307 310 313 316 318 320 321 321 322 323 323 323 325 326 326 326 325 325 327 328 330 331 332 331 331 329 330 331 331 331 330 330 330 330 329 329 329 329 329
285 288 291 290 291 291 289 289 289 288 288 286 285 285 285 286 287 288 287 287 288 289 287 285 285 288 289 290 291 292 292 293 295 293 294 294 295 295 295 296 295 294 295 296 297 297 298 302 306 309 312 315 318 319 320 321 322 322 322 324 325 325 326 326 325 323 328 329 330 331 331 331 332 329 329 331 330 330 329 328 329 329 329 329 329 329
289 289 291 290 290 292 290 289 289 288 286 287 287 285 284 285 286 286 286 287 286 286 285 285 286 286 287 290 291 292 289 290 293 291 291 291 292 294 295 294 294 295 296 296 297 296 296 298 301 306 309 313 315 317 319 320 321 322 323 323 324 325 325 325 324 324 326 325 325 325 322 320 321 319 322 324 325 327 327 328 326 327 327 328 328 329
290 289 292 290 289 290 289 287 288 288 285 286 287 287 287 286 286 286 285 286 283 283 285 285 283 283 282 283 286 291 289 290 288 288 291 293 293 292 292 294 295 295 296 296 297 298 297 297 299 302 307 309 312 315 317 320 321 322 323 323 324 324 325 325 325 325 324 324 325 323 322 321 321 322 320 320 322 322 322 324 325 325 326 327 327 328
290 287 292 290 289 287 288 288 288 290 286 285 287 289 288 287 286 286 285 286 281 281 286 285 282 278 282 288 288 287 285 287 289 288 291 291 292 291 292 294 295 296 296 295 296 296 295 295 296 298 303 308 310 313 316 318 320 321 322 323 323 324 324 325 325 324 323 324 325 324 324 324 323 323 324 325 325 326 324 325 324 326 325 326 326 327
286 287 288 289 289 288 287 287 288 291 288 284 286 289 287 287 287 287 287 285 282 284 285 283 283 278 280 286 290 289 286 288 290 291 290 290 290 291 292 293 294 296 296 296 296 296 295 295 295 296 299 303 308 311 313 315 317 319 320 322 322 323 323 324 325 324 323 324 324 324 324 324 324 324 325 325 324 325 323 324 324 325 324 325 326 326
289 285 288 287 288 287 287 289 287 291 289 285 287 289 288 288 288 288 287 283 284 283 280 283 284 281 278 282 283 284 288 290 291 291 292 292 292 291 292 293 294 295 295 294 295 296 296 295 295 296 297 299 304 308 311 314 316 317 319 320 321 322 322 323 323 323 323 323 324 324 324 323 323 325 325 321 320 320 320 323 322 323 324 323 323 326
287 289 290 292 289 288 287 287 289 292 289 287 286 288 288 288 288 288 284 285 283 280 278 282 281 279 282 283 287 284 284 286 287 290 292 293 292 292 293 293 293 292 292 292 293 294 295 295 295 295 295 295 298 304 308 310 312 315 317 318 319 320 321 322 323 322 323 323 322 323 323 323 323 322 318 317 315 318 316 321 319 320 321 320 319 321
287 291 292 289 289 288 285 284 289 292 288 288 288 287 285 284 284 284 284 283 281 277 279 282 282 283 279 282 286 285 286 289 289 288 290 290 290 290 290 291 292 291 291 291 291 291 292 292 292 292 294 295 296 298 304 308 311 313 315 317 317 319 321 321 322 322 322 323 323 323 323 323 323 322 319 314 314 316 314 319 316 315 318 319 319 320
286 287 289 287 287 285 288 286 285 286 287 290 284 282 285 284 284 284 282 282 277 276 280 281 281 282 278 280 283 288 287 285 288 289 291 291 292 292 291 290 289 288 289 290 290 292 292 292 292 292 293 294 295 297 300 305 308 310 313 315 316 317 319 320 320 321 322 322 322 323 323 323 324 323 320 318 318 316 315 318 314 314 316 316 317 317
284 286 285 288 290 289 285 286 283 285 288 285 284 285 281 276 279 277 279 276 278 277 279 278 280 279 281 286 286 287 288 287 285 288 290 291 292 293 291 289 290 290 289 290 292 293 293 294 294 292 293 294 294 296 299 302 306 309 311 313 314 316 317 319 320 320 321 322 322 322 323 323 323 323 321 320 321 318 318 318 316 313 313 314 313 313
285 285 285 287 287 288 290 285 282 281 285 284 284 281 278 274 272 271 269 269 270 275 278 279 280 279 282 285 287 291 295 295 292 289 290 290 291 292 292 293 293 293 291 291 292 293 294 294 294 293 293 293 294 295 297 299 302 305 308 310 313 315 316 317 317 319 320 321 322 322 323 323 323 322 321 320 321 318 319 318 317 314 315 314 315 314
281 278 286 286 284 287 290 290 288 283 285 286 283 285 278 271 270 269 269 275 274 277 278 278 277 277 277 285 285 287 290 290 290 290 290 290 290 290 290 289 290 291 292 292 292 293 294 294 293 293 292 292 293 294 295 296 299 301 304 307 309 311 313 314 316 317 318 320 320 321 322 322 323 322 320 320 320 318 317 316 317 316 317 315 316 316
286 283 282 286 286 288 288 287 288 286 286 284 282 283 279 281 277 273 270 273 270 273 274 274 278 279 284 285 288 287 287 288 289 290 289 291 291 289 289 290 291 292 293 293 293 294 294 293 292 291 291 292 292 292 293 294 296 299 302 304 307 309 311 311 312 315 317 318 319 319 320 321 321 320 320 319 318 317 318 316 317 316 316 317 317 316
283 282 283 284 285 289 289 288 287 290 281 283 283 282 283 284 281 274 273 274 273 272 273 274 278 281 282 286 289 293 288 289 288 287 287 288 288 287 289 291 292 291 291 292 292 293 293 292 291 291 292 292 292 292 293 294 295 297 299 300 302 304 306 308 310 313 315 316 317 317 319 319 319 318 318 319 317 317 316 317 317 316 315 315 314 311
287 281 283 283 283 286 283 286 287 284 286 283 279 284 285 284 282 279 273 269 268 271 273 273 278 279 279 280 284 282 286 286 290 292 289 287 286 286 290 291 292 292 291 290 291 291 292 292 292 292 292 292 293 294 294 294 292 293 295 297 299 301 303 304 306 309 311 313 315 316 316 317 318 318 318 319 317 316 315 315 315 313 311 311 310 309
288 278 283 283 284 286 286 287 287 287 286 286 282 287 286 278 277 278 273 271 267 268 269 271 274 276 281 284 284 284 284 288 290 289 287 288 287 288 289 290 290 288 288 289 290 290 290 291 292 293 293 293 292 292 293 295 295 294 294 294 295 298 299 301 303 305 307 311 314 315 315 316 316 317 318 317 316 315 314 313 312 311 312 309 306 305
285 279 279 284 284 286 285 286 282 284 286 286 286 285 284 281 277 275 279 273 275 270 267 272 269 279 281 282 285 289 291 291 291 291 291 291 290 289 289 290 289 289 289 288 289 290 291 291 291 292 293 294 294 294 293 294 296 295 295 296 296 296 296 297 300 303 306 308 310 311 312 313 315 315 316 315 314 314 314 313 312 310 308 307 304 306
284 283 276 282 283 284 281 284 284 285 282 282 284 282 284 281 282 280 278 276 276 266 265 269 272 277 280 284 286 289 290 290 290 292 292 292 290 288 288 289 289 289 289 288 288 289 290 291 290 289 290 289 289 289 289 294 298 298 297 297 297 298 298 300 302 303 305 307 308 309 310 311 312 313 314 314 314 313 313 312 310 310 309 304 304 304
283 282 280 280 281 282 280 282 282 286 288 286 286 284 286 282 277 279 277 277 271 274 271 266 275 281 283 283 289 289 290 290 290 291 292 289 287 287 288 288 287 289 288 287 288 288 289 289 289 289 289 288 287 290 292 295 298 299 299 299 299 299 300 301 302 304 305 306 308 308 310 310 311 312 312 312 311 311 311 309 308 306 303 303 302 302
284 283 283 276 280 282 284 286 282 282 284 286 286 286 286 284 282 276 274 273 272 274 270 269 268 279 286 287 287 288 288 289 288 286 289 287 288 288 287 287 287 287 287 288 287 288 288 288 288 287 287 288 288 292 292 293 298 300 299 299 299 300 301 302 303 304 305 305 306 306 307 307 307 308 308 308 307 307 306 304 303 301 302 300 298 300
291 283 282 281 282 283 282 283 283 282 285 285 283 281 283 284 283 280 273 275 278 273 273 272 272 281 283 283 285 285 285 283 281 283 288 286 287 287 287 287 287 288 288 287 287 287 288 287 286 286 289 290 290 290 291 293 296 299 299 299 299 299 300 301 303 303 303 303 303 303 302 303 302 303 303 304 303 302 300 299 299 298 299 298 298 298
288 284 285 276 275 279 279 282 282 284 283 281 281 281 283 282 281 278 277 275 275 277 278 276 275 278 286 282 282 283 283 285 285 283 284 287 287 287 286 286 286 287 288 288 288 288 287 287 289 290 289 290 290 289 288 290 295 297 298 297 298 299 299 299 299 300 299 298 298 298 299 299 299 301 300 300 299 298 297 297 297 297 297 297 297 296
286 285 284 279 276 274 273 275 278 281 281 280 279 282 282 285 282 280 278 276 275 280 280 276 280 283 285 282 286 284 284 286 285 284 282 284 286 286 286 286 286 286 288 289 289 288 290 290 289 288 289 289 289 289 289 290 293 295 295 297 296 297 296 296 296 298 298 297 297 296 297 297 297 298 298 297 297 296 296 295 296 296 296 297 296 294
284 286 287 285 284 281 283 282 284 285 282 281 282 283 283 285 285 286 280 276 280 279 279 283 284 281 282 284 284 286 283 287 288 285 285 287 285 285 284 285 286 286 287 289 289 289 287 288 289 290 289 289 289 288 288 289 292 293 294 295 294 295 296 296 296 296 297 296 297 296 296 296 297 297 296 296 295 294 294 294 294 294 294 294 294 294
285 284 285 286 286 288 282 280 284 288 284 285 283 283 285 284 284 285 282 282 282 278 277 284 285 283 283 282 284 284 285 283 284 284 284 284 285 285 286 284 287 287 287 287 288 289 290 291 290 289 289 288 289 289 288 288 289 292 294 295 294 294 294 295 295 296 296 296 296 296 295 295 294 294 294 293 292 293 293 293 293 293 293 293 294 294
287 286 286 285 286 281 280 283 285 287 287 286 285 285 284 285 284 284 284 286 284 283 282 283 284 284 285 284 285 286 286 287 288 288 287 286 284 283 283 285 287 288 288 288 290 290 291 292 292 291 289 288 288 288 288 288 288 289 291 293 294 293 294 294 295 295 295 295 295 294 293 292 292 292 291 291 292 292 292 292 292 292 292 292 293 293
289 286 286 286 284 281 280 282 285 286 284 285 285 285 286 285 284 286 286 287 286 285 286 280 283 285 286 287 286 286 286 286 284 284 284 285 286 286 284 286 286 287 287 289 290 291 291 293 293 292 289 289 288 288 289 289 289 289 291 292 292 293 293 293 294 294 294 294 293 291 291 291 292 291 291 291 291 291 291 291 291 291 291 291 291 290
290 286 288 284 280 278 279 282 282 283 284 283 285 286 286 286 286 286 287 287 286 285 286 282 282 283 285 285 287 287 284 284 285 286 286 287 285 285 287 287 286 287 288 289 289 290 290 291 291 290 290 291 290 290 290 290 289 289 289 291 291 293 292 293 293 293 293 294 292 291 291 290 291 291 291 291 291 291 291 290 291 291 290 289 289 289
289 281 282 283 282 274 277 280 280 280 280 281 283 284 285 284 283 285 284 285 284 284 285 283 283 285 284 286 285 286 283 285 287 287 286 288 287 286 285 287 287 288 289 289 290 289 288 289 289 290 291 292 291 289 289 289 289 288 289 290 291 292 291 292 293 293 293 292 291 291 291 291 290 290 290 290 290 290 290 289 289 289 289 288 287 287
284 281 281 280 282 276 278 280 282 282 281 278 282 285 286 286 286 285 286 286 288 289 284 282 285 287 288 289 288 285 286 285 286 287 288 288 288 287 287 288 288 288 289 291 291 290 289 289 290 290 291 290 290 289 289 289 289 289 290 290 290 291 291 292 292 292 292 292 291 291 291 290 290 290 290 290 289 289 288 288 288 287 287 287 287 286
284 285 282 286 282 277 277 280 282 280 275 279 290 291 288 286 285 284 285 286 288 288 288 290 291 286 287 288 290 289 287 288 289 292 292 293 292 289 287 288 289 290 290 290 290 289 289 288 289 289 289 289 289 290 289 289 289 290 289 289 288 290 291 292 292 293 292 291 291 291 291 290 290 290 290 289 288 288 287 287 287 287 287 286 285 285
286 286 282 282 281 276 276 279 280 276 278 290 289 290 290 290 289 287 288 289 289 289 290 290 290 287 286 290 290 291 292 292 290 290 291 289 290 291 292 292 291 290 291 290 288 288 288 289 288 287 288 289 289 288 287 287 288 287 287 287 288 289 291 291 292 292 292 291 291 291 290 290 290 290 289 288 287 287 287 287 286 286 285 285 285 284
285 285 281 278 279 277 276 280 275 277 287 286 283 285 288 290 290 288 286 289 289 289 289 289 291 292 287 287 288 288 288 287 286 287 289 291 290 293 292 292 292 291 289 289 289 289 288 287 288 288 288 288 287 287 288 288 287 287 287 287 288 288 289 290 291 291 291 291 291 290 290 290 290 289 288 287 287 287 287 286 285 285 284 283 283 283
290 288 286 279 279 278 278 280 280 283 283 287 285 281 285 285 285 285 282 286 289 290 289 290 291 291 290 286 285 283 283 286 288 292 289 289 291 290 290 291 291 289 289 290 289 289 288 286 286 286 286 286 288 288 288 287 287 288 286 286 287 287 288 289 290 291 291 290 290 290 289 290 290 289 288 287 286 286 286 285 284 283 282 282 282 281
292 287 287 284 276 278 278 272 274 277 277 283 289 286 288 286 288 287 284 286 289 290 291 290 290 290 290 285 283 283 286 287 287 291 292 289 290 290 287 288 287 288 288 289 287 286 285 285 285 285 287 287 286 287 287 286 287 287 286 286 286 286 287 288 289 290 290 290 290 289 289 289 289 288 287 286 286 286 285 285 284 283 282 282 281 281
285 286 289 287 280 276 276 277 277 276 280 287 283 286 288 289 290 287 282 280 291 291 290 291 290 290 289 286 284 285 287 284 287 291 294 291 290 288 289 288 288 288 288 288 288 288 287 286 286 286 285 286 286 286 286 286 286 287 286 286 286 286 287 287 288 288 289 289 289 288 288 288 288 287 286 286 286 286 284 283 283 281 280 281 281 280
285 281 284 282 276 280 280 278 277 278 282 283 282 284 287 289 291 288 272 279 289 289 290 290 290 290 288 287 286 288 288 286 288 292 294 289 288 288 289 290 289 287 287 286 285 286 285 285 286 286 286 286 287 284 285 285 286 286 286 286 285 286 287 287 287 287 287 286 286 286 286 286 286 286 286 285 285 284 284 282 280 280 280 279 279 278
282 277 282 281 280 281 283 275 271 277 284 280 283 286 288 292 289 280 277 285 285 287 289 290 290 291 289 287 288 287 290 294 293 288 286 286 286 287 286 285 286 286 286 284 284 284 284 283 285 286 285 285 285 284 285 285 286 286 286 285 285 286 287 286 286 286 286 285 285 284 284 284 285 284 284 284 283 282 280 280 280 279 278 278 277 277
277 279 275 278 278 278 279 279 278 279 283 283 280 287 290 288 277 281 285 283 284 285 288 290 290 290 290 289 290 292 293 293 288 284 286 285 287 285 284 284 284 284 282 282 282 282 283 282 283 283 284 284 283 283 284 285 286 285 285 284 285 286 285 285 285 285 284 284 284 283 283 282 282 282 282 281 280 279 279 278 278 278 277 277 277 276
283 281 279 280 277 271 269 276 269 273 286 288 285 283 286 287 286 285 283 283 283 286 286 286 287 286 289 288 289 291 291 287 287 288 286 284 284 287 286 284 285 285 285 283 283 281 282 283 283 283 283 282 281 283 284 284 284 284 284 285 286 284 284 284 284 284 284 283 282 282 281 281 280 281 280 280 280 279 277 277 277 276 276 276 276 275
287 282 280 282 284 279 279 276 279 285 285 289 288 286 287 285 285 287 289 285 283 283 285 286 284 286 288 289 288 289 289 287 285 285 286 285 284 283 283 283 282 282 281 280 281 281 279 281 280 280 280 280 280 281 282 284 284 283 283 284 283 282 280 281 281 282 281 281 280 280 279 279 279 279 279 279 278 278 277 276 276 276 276 276 276 275
287 286 287 283 286 284 282 285 282 279 287 291 293 294 292 290 283 283 288 288 286 283 283 287 287 285 287 288 288 288 286 286 288 287 287 288 287 285 285 285 285 285 283 282 280 277 278 281 281 279 279 279 278 280 280 280 283 281 282 281 280 280 280 279 279 280 279 279 278 278 278 277 278 277 278 278 278 277 276 275 275 275 275 275 276 275
288 287 281 285 282 283 282 283 282 279 281 286 285 283 292 291 284 282 286 287 285 286 286 289 286 286 286 285 287 283 287 287 286 284 284 284 285 283 281 281 280 279 278 277 276 276 276 276 275 277 278 278 277 277 278 278 280 282 280 278 279 279 279 278 278 278 278 277 277 277 276 276 275 275 276 276 278 278 277 276 276 276 275 275 276 275
282 283 285 285 280 285 283 290 284 283 282 285 289 285 287 292 287 283 283 285 284 284 286 285 287 287 287 285 287 288 287 285 285 286 285 285 284 283 281 281 280 279 279 279 278 275 276 275 276 276 275 278 276 274 275 276 277 278 276 276 277 277 278 278 278 278 276 276 276 274 275 276 276 275 274 275 276 276 276 276 276 276 275 276 276 275
282 283 288 279 282 285 286 290 287 284 284 287 287 285 287 287 283 282 281 282 283 282 284 282 283 283 284 285 286 287 287 285 286 286 285 284 284 282 280 279 278 277 276 274 274 273 273 275 276 274 274 276 276 275 274 275 276 273 273 275 276 276 277 277 277 278 276 275 275 275 275 276 274 274 275 274 275 275 275 275 276 276 276 276 276 275
283 286 285 282 285 287 287 281 281 283 285 283 284 283 283 286 288 284 282 282 282 284 283 280 279 283 285 288 286 285 284 284 285 286 285 284 281 279 279 278 277 276 275 275 272 272 276 273 274 274 274 275 275 274 274 274 273 271 274 275 274 276 277 277 275 274 273 273 273 274 273 274 274 275 275 274 273 275 275 276 276 277 277 277 277 278
286 285 286 285 283 284 285 287 284 284 282 285 284 287 286 286 288 288 282 281 281 283 282 283 278 277 278 279 282 283 286 284 280 279 280 279 279 278 277 276 274 274 272 272 271 272 272 271 272 272 273 274 272 271 272 272 271 271 272 272 274 276 277 275 274 272 273 273 273 273 273 273 273 272 273 273 273 273 271 274 277 276 276 276 277 279
288 288 287 285 286 285 290 285 289 290 288 288 290 289 287 285 286 286 284 285 284 284 284 284 282 280 280 278 277 282 280 281 280 278 279 278 278 276 276 276 276 275 274 271 273 271 271 270 270 271 272 272 270 271 271 271 270 271 271 272 274 275 276 275 275 273 272 272 273 273 273 272 272 272 272 272 272 272 273 272 271 278 279 278 277 279
Wind_Speed
3 8 9 11 10 11 8 6 5 2 5 7 6 6 5 5 2 3 3 2 2 1 5 7 7 7 9 11 11 9 1 4 7 7 7 7 7 7 8 9 10 10 16 6 6 9 9 10 10 9 9 9 9 9 9 11 12 12 12 11 13 13 12 11 10 10 9 9 10 9 11 10 9 9 8 8 8 8 8 8 8 8 8 8 9 8
4 7 9 6 10 13 9 6 7 7 5 10 8 7 4 4 7 4 1 1 3 3 2 0 2 6 10 10 11 11 2 9 9 9 8 9 9 8 8 10 11 14 5 6 8 7 7 10 10 9 9 10 12 12 13 14 15 14 13 13 14 11 12 14 14 11 10 10 10 9 9 8 8 8 8 9 8 8 7 8 8 8 8 9 9 8
5 10 9 10 5 5 6 5 5 8 6 3 7 6 5 3 2 5 2 1 1 2 6 1 3 8 9 9 10 10 9 8 8 9 10 9 9 8 8 10 12 7 11 6 11 7 9 10 11 10 11 11 14 14 15 16 13 12 13 14 14 13 13 13 12 11 12 11 10 11 9 10 7 7 8 8 8 8 9 10 10 10 9 10 10 9
4 6 10 4 8 9 3 4 7 6 5 6 6 7 7 4 5 3 2 2 2 0 3 2 5 10 9 8 12 13 8 8 10 9 11 8 10 11 13 11 8 9 11 13 13 11 9 10 10 9 10 13 12 13 12 12 14 12 13 14 15 14 13 12 13 13 13 12 11 11 10 9 10 8 8 9 8 9 10 10 10 9 9 9 9 10
6 0 5 9 7 10 8 5 7 7 4 1 5 4 5 3 3 4 2 2 0 3 2 4 5 7 4 8 7 6 2 5 9 6 8 9 9 11 6 5 8 12 11 12 12 10 8 9 12 14 14 10 12 13 14 14 14 12 17 17 16 14 13 12 13 14 12 9 8 7 4 3 3 1 4 5 7 9 9 9 8 8 8 9 9 9
2 3 9 10 7 6 7 6 7 8 6 2 4 8 7 6 4 2 3 5 5 2 3 5 5 6 5 5 8 10 5 4 3 3 9 11 9 8 10 13 12 10 11 12 15 12 8 10 10 9 9 11 13 13 14 15 16 16 15 14 13 12 12 13 14 14 11 11 11 10 10 10 8 9 8 11 12 9 8 8 5 6 9 9 9 9
4 2 10 13 9 6 7 7 7 7 7 6 7 6 6 7 6 5 3 3 1 2 1 1 3 8 5 10 8 6 6 10 7 6 11 10 10 7 10 11 12 11 12 11 12 10 6 8 7 9 11 14 13 15 12 11 13 13 12 11 13 13 12 13 13 13 12 12 12 14 14 13 13 12 10 9 8 8 7 7 8 9 8 9 10 9
4 5 5 7 11 11 8 9 7 11 8 5 2 8 5 7 6 4 4 4 2 1 2 2 3 3 9 9 7 5 5 11 11 10 8 10 11 11 11 12 12 11 11 9 10 10 9 9 10 13 13 10 14 11 7 11 10 12 14 13 14 12 12 11 11 13 13 14 13 13 13 13 13 14 13 10 9 8 7 8 9 8 8 9 9 9
10 7 11 11 7 8 12 7 6 8 7 4 4 10 8 8 5 5 5 3 1 1 6 1 0 3 7 8 2 1 11 12 12 9 11 9 10 11 11 11 12 12 8 6 8 11 10 10 11 11 9 10 9 8 11 12 12 11 11 11 11 12 12 11 13 13 14 13 13 13 12 13 11 11 9 6 7 8 8 9 8 8 8 8 8 8
2 7 15 18 13 13 4 5 10 11 8 4 3 4 4 5 4 3 3 2 0 1 5 2 2 3 13 6 7 1 4 9 7 9 11 11 10 9 10 9 6 5 6 7 9 10 9 8 8 8 8 8 11 9 8 7 6 9 9 12 13 14 12 12 13 14 14 14 12 13 13 15 12 9 6 6 7 8 8 9 9 8 7 7 6 7
1 3 4 5 9 2 5 1 6 9 2 5 8 6 5 6 3 3 4 1 2 5 6 6 7 3 9 2 8 5 8 10 8 6 7 8 7 9 9 9 7 7 6 6 7 8 9 6 6 5 9 10 6 6 7 9 9 9 10 12 13 16 12 12 13 14 15 14 14 14 14 15 14 12 10 8 7 7 8 9 9 8 8 7 8 7
3 2 5 2 3 4 5 5 5 2 3 8 3 5 7 4 3 3 2 3 1 6 1 2 4 7 9 4 6 5 5 5 5 7 8 8 8 8 6 5 5 6 6 6 7 9 7 8 6 5 9 9 8 5 8 9 8 9 10 10 13 12 13 12 12 13 14 13 13 14 14 14 13 12 10 12 12 11 12 10 9 8 7 8 7 6
3 3 2 1 3 11 4 8 3 2 0 3 7 8 9 3 3 2 1 4 9 5 0 2 4 1 17 6 7 6 8 7 7 8 9 10 9 8 3 4 7 6 6 7 8 8 7 7 7 5 7 6 7 8 8 8 8 8 8 11 12 14 12 11 11 13 13 13 13 13 13 13 11 11 12 12 12 11 11 9 9 8 9 7 6 6
1 1 1 3 3 5 11 11 5 3 5 5 8 9 8 6 3 5 2 1 5 5 4 1 0 7 3 7 10 14 16 12 8 8 8 6 9 10 9 7 8 9 7 9 8 8 8 7 6 6 6 6 6 7 7 6 6 6 7 8 11 12 8 8 9 11 11 13 13 11 12 11 10 11 11 10 11 10 10 9 10 12 12 10 11 9
10 2 10 12 6 5 10 10 12 6 11 10 3 7 5 5 6 5 5 9 7 6 1 3 1 7 2 3 1 8 9 8 8 8 7 8 8 8 6 8 11 12 12 8 8 8 7 6 6 7 6 6 6 7 7 6 6 5 6 7 9 8 7 8 9 9 11 11 11 10 10 11 10 10 9 10 9 9 10 9 10 10 9 9 9 9
14 3 4 1 2 7 9 2 8 6 5 1 3 4 3 7 5 4 5 3 2 1 0 2 7 4 5 3 9 5 7 9 8 9 6 10 10 4 5 8 10 10 10 7 6 7 7 6 6 6 6 6 5 5 5 6 6 7 8 7 8 9 8 7 7 9 10 10 9 9 11 11 10 9 8 7 7 8 9 10 10 10 10 9 8 6
2 3 1 4 3 12 11 8 2 8 6 5 6 8 5 2 7 5 2 1 1 4 7 2 8 7 7 7 9 14 6 9 6 6 6 8 8 6 8 10 8 6 7 7 8 7 6 5 6 6 6 5 5 4 5 5 5 7 6 7 8 7 5 7 8 9 9 9 9 10 10 9 9 9 10 9 10 10 9 9 9 9 9 7 7 7
14 4 2 3 6 2 1 2 5 1 5 8 6 8 2 2 4 4 3 1 1 3 6 2 10 5 1 10 4 2 3 6 9 13 6 6 5 6 9 8 9 8 6 6 7 8 7 6 6 6 5 5 5 4 3 4 4 4 5 6 7 7 8 8 7 8 8 9 10 9 9 9 10 9 10 9 9 9 8 7 7 6 6 8 8 8
9 5 1 1 1 2 2 4 1 1 2 7 6 6 9 5 4 2 4 2 1 2 4 4 3 7 9 9 3 4 5 9 10 8 7 6 5 7 8 9 8 5 5 6 6 7 6 6 6 6 5 3 4 4 4 2 3 3 4 5 6 8 8 7 6 5 5 6 7 7 8 8 8 8 8 7 8 9 9 9 8 9 9 7 7 8
2 8 1 2 3 2 1 3 12 7 2 1 3 4 1 3 2 5 7 3 5 4 1 7 3 8 7 7 9 13 12 13 12 12 9 9 8 7 7 7 7 7 6 6 6 6 6 6 6 6 5 4 3 3 3 3 3 3 3 4 5 4 4 4 6 7 8 7 6 5 5 6 7 7 8 8 9 9 10 10 10 9 8 10 9 9
4 3 6 1 1 3 4 6 12 13 10 4 5 6 1 0 1 5 0 5 4 4 5 2 6 7 6 8 10 12 12 12 11 12 11 8 4 4 6 7 6 7 6 5 5 5 6 6 6 5 4 3 2 2 2 3 5 4 4 4 5 6 5 6 6 6 7 7 7 7 8 8 8 8 8 9 9 10 10 10 10 10 10 9 9 10
5 3 12 6 4 8 5 1 3 11 11 9 11 14 15 12 7 8 8 3 1 2 4 3 10 7 6 3 10 10 11 10 11 12 11 6 4 4 5 6 5 6 6 5 5 4 5 6 7 5 3 2 2 3 3 3 4 4 4 4 4 4 4 5 6 6 6 5 5 7 7 8 7 8 8 9 9 10 9 9 9 8 8 10 9 10
6 4 10 7 7 8 2 1 1 0 1 7 8 10 8 5 3 2 5 5 1 2 4 2 1 12 8 10 9 10 7 11 5 1 1 3 5 5 6 6 5 5 7 7 6 4 4 4 5 5 4 4 4 3 2 2 3 3 3 3 3 3 4 5 4 4 5 5 6 6 5 5 6 6 7 8 7 8 7 7 7 8 10 9 9 7
8 6 8 3 3 3 3 1 1 1 1 2 5 2 7 11 8 7 2 6 8 2 2 1 3 10 3 4 8 7 8 1 1 2 1 4 6 6 6 6 7 7 6 6 6 5 5 3 3 3 4 5 5 3 4 3 2 2 1 2 2 3 4 3 3 3 4 4 5 5 5 6 5 6 6 7 6 7 5 6 7 7 8 9 9 9
8 4 10 6 4 1 5 2 2 0 2 4 3 3 2 3 4 3 5 1 3 11 10 9 12 6 3 1 3 7 5 6 6 4 6 4 6 5 5 5 5 6 8 7 5 4 3 3 4 6 6 7 6 5 4 4 4 4 4 3 4 4 4 4 3 3 3 3 4 4 4 5 5 6 6 6 5 6 7 7 7 7 9 9 9 8
5 6 11 13 16 14 10 11 16 17 13 2 0 7 7 13 11 8 6 2 4 8 14 6 13 1 1 2 2 5 4 7 7 6 5 5 4 5 4 4 6 5 7 5 4 2 4 5 4 5 6 6 6 6 5 5 4 4 3 4 3 3 3 3 3 4 4 4 5 5 5 5 5 6 6 7 6 8 8 8 7 8 7 9 10 8
3 5 9 11 15 17 18 6 6 13 7 11 10 12 11 7 10 8 4 4 16 3 10 19 17 1 2 6 3 8 4 8 7 3 4 5 6 7 6 7 6 6 6 7 6 5 4 5 7 7 5 6 5 4 5 4 5 5 4 4 3 4 4 4 4 4 4 5 5 5 5 6 6 6 6 7 7 7 7 7 7 8 10 7 9 11
5 4 8 12 15 11 3 3 7 16 14 13 9 11 10 11 11 14 12 21 8 11 11 19 10 11 9 6 8 7 7 5 6 7 6 4 5 5 6 5 6 7 8 6 6 6 5 6 6 6 6 6 7 6 5 4 5 6 6 6 5 4 4 4 4 4 4 4 5 5 6 5 5 6 6 5 5 6 7 7 7 6 6 8 9 8
9 12 11 8 10 5 2 9 10 12 14 14 17 14 14 17 15 19 22 20 11 15 21 3 12 17 14 9 10 12 10 9 9 11 10 5 2 2 3 6 7 7 6 5 7 6 5 5 6 6 4 4 4 5 6 6 6 5 5 4 4 4 5 4 5 4 4 4 4 5 4 4 4 4 5 5 6 6 6 5 6 6 7 6 7 6
7 9 8 12 6 4 4 4 7 13 6 10 15 17 18 16 20 25 27 21 18 16 15 3 6 17 8 12 9 10 9 8 3 1 1 3 5 6 5 8 8 7 6 7 8 7 5 7 7 6 4 5 6 7 7 7 7 7 7 6 4 4 3 3 4 5 4 5 4 3 4 4 5 5 5 6 7 6 7 7 7 7 7 7 7 7
12 11 14 7 5 1 3 3 2 3 9 10 10 14 16 19 23 28 25 16 13 14 14 5 5 15 8 7 9 6 1 0 1 1 4 5 5 6 9 9 7 8 9 9 8 10 7 6 7 6 7 9 8 9 8 7 5 4 4 4 5 5 4 5 5 5 6 6 5 6 5 5 5 7 8 7 7 7 7 8 8 8 8 8 8 9
10 3 3 7 10 3 2 4 3 6 4 5 6 11 16 21 22 22 15 7 7 22 18 8 12 24 6 11 6 3 3 4 6 6 6 7 9 7 6 9 9 11 10 10 10 6 5 7 8 8 10 10 6 4 5 5 6 6 8 7 7 6 6 5 5 6 6 6 7 7 7 7 7 6 6 7 7 7 7 7 7 7 8 9 8 7
5 6 7 8 11 4 1 6 10 7 6 2 10 23 32 23 14 6 11 13 22 21 8 12 28 3 10 12 10 5 6 5 6 7 9 9 9 9 11 12 11 9 11 11 9 7 6 8 9 9 9 5 4 5 8 7 7 9 8 8 7 6 7 7 7 7 6 6 7 7 6 6 7 7 7 7 7 7 6 7 6 6 7 8 8 9
8 9 5 6 8 4 4 7 7 8 8 15 24 16 10 16 18 15 18 25 25 14 20 22 17 5 8 10 15 11 9 10 11 14 12 11 10 8 9 9 12 12 9 8 7 7 7 7 7 6 5 6 6 8 6 8 8 7 6 7 7 9 8 9 8 8 8 8 8 8 8 7 7 8 7 7 7 7 7 7 8 7 7 8 8 9
13 11 7 4 7 7 3 3 7 13 13 26 3 10 17 19 21 28 33 27 21 21 23 18 18 11 10 13 12 14 14 12 8 8 9 9 7 8 10 12 10 9 11 9 7 8 10 8 5 4 5 7 7 5 5 6 5 4 5 7 8 8 8 8 8 8 8 8 7 7 8 8 8 8 8 8 7 7 8 8 7 8 7 7 9 10
10 9 4 4 5 5 5 8 8 15 17 2 1 7 11 20 27 23 22 21 18 18 21 25 29 23 10 9 5 2 6 5 5 10 13 12 8 13 13 12 12 10 10 10 9 10 7 6 7 6 6 5 4 5 6 6 6 6 6 6 7 8 8 8 8 8 7 7 8 8 8 9 8 8 8 9 8 8 9 8 9 10 7 7 6 5
24 13 10 4 1 9 7 12 12 6 9 14 9 7 15 16 12 18 18 24 18 18 21 26 27 14 7 3 4 2 2 1 5 15 8 11 15 13 14 14 9 8 9 10 8 9 6 4 4 6 4 4 5 5 6 5 6 6 6 7 7 8 8 8 9 10 9 9 8 8 8 9 9 9 9 8 8 8 8 9 8 7 7 8 8 9
10 18 12 14 4 4 9 3 2 6 12 21 20 2 7 5 10 6 2 19 11 21 21 19 21 15 10 5 5 4 3 1 11 17 12 12 16 12 7 7 6 8 9 9 5 4 4 4 4 4 4 5 4 4 4 6 7 7 7 7 7 8 8 10 12 9 9 9 8 8 8 8 8 7 7 8 9 8 7 5 4 7 7 10 10 10
3 1 13 16 8 5 5 12 11 13 20 17 7 13 13 15 16 13 6 12 24 18 15 19 20 15 11 12 9 8 8 8 17 17 13 11 11 8 9 10 11 10 8 8 8 8 7 5 5 4 3 3 4 4 5 7 8 8 7 7 7 7 9 11 9 6 7 6 5 6 7 7 6 7 8 9 8 7 9 8 7 5 5 5 6 7
9 6 8 10 7 12 13 11 14 7 16 7 8 6 17 17 20 13 4 16 14 20 18 16 21 17 12 15 15 14 15 15 16 19 11 7 8 9 10 10 8 7 7 5 5 6 4 1 1 1 3 5 5 4 7 7 7 7 8 7 7 9 11 8 5 4 4 5 6 6 6 6 7 7 8 8 6 5 5 5 6 7 6 5 5 6
9 1 8 16 14 15 18 7 4 9 8 5 10 13 16 19 15 11 19 17 6 10 15 19 19 18 16 16 16 14 19 23 16 1 7 6 4 6 5 4 4 1 3 3 5 2 2 3 4 5 4 4 3 5 6 7 7 7 6 7 7 10 7 4 5 6 6 7 7 7 7 6 7 7 6 6 7 6 6 5 7 7 7 7 6 6
4 4 0 2 9 12 12 14 11 8 7 10 5 19 19 13 8 24 8 4 7 8 14 17 20 16 17 22 19 19 17 15 1 4 5 5 7 3 3 3 2 0 0 1 2 2 3 2 3 3 1 2 5 6 7 7 7 6 6 6 9 8 5 5 6 7 7 8 8 8 8 8 7 7 8 7 8 8 7 5 6 7 7 6 7 9
19 15 16 16 6 5 4 9 1 10 11 23 15 1 7 16 9 6 5 0 1 7 11 7 7 6 12 12 15 17 13 6 6 6 6 3 3 4 4 3 5 5 6 4 3 3 3 3 4 4 3 2 4 5 6 7 6 6 5 8 8 4 5 6 6 7 7 7 7 7 8 7 8 8 7 8 8 9 9 7 8 8 8 9 9 9
11 11 8 9 11 15 15 13 14 13 6 21 25 17 12 3 2 7 9 4 0 4 7 8 5 8 10 13 15 13 11 7 5 6 6 6 5 4 4 4 3 2 2 2 1 3 4 3 3 2 1 1 3 4 4 7 6 5 6 8 2 4 4 4 4 5 6 6 7 7 7 7 8 7 7 9 9 9 10 9 9 9 9 10 10 10
11 18 17 19 16 12 13 15 1 2 13 15 18 14 13 10 5 6 8 10 8 5 5 8 11 8 10 12 11 13 8 8 10 9 10 12 10 9 9 10 9 7 6 4 4 3 4 5 4 4 2 1 3 3 4 4 5 4 5 2 4 4 6 5 5 6 6 6 6 6 6 6 7 7 7 8 10 10 9 9 9 9 7 9 9 10
11 9 5 4 4 2 5 5 1 1 3 9 7 2 14 14 5 3 8 7 4 7 11 11 9 11 10 7 10 5 10 11 9 5 7 6 7 5 4 4 3 1 2 2 3 4 4 4 3 4 4 1 1 2 3 3 4 5 3 2 4 5 6 6 6 5 5 5 5 6 6 7 5 6 6 8 7 9 9 11 11 10 9 9 10 10
3 6 6 8 1 10 16 16 11 7 2 7 9 2 3 10 7 4 3 1 3 8 7 1 11 13 14 11 12 15 13 8 10 9 8 6 7 6 7 6 5 5 5 5 3 5 4 4 4 2 2 2 0 0 1 2 2 2 2 4 4 5 6 6 6 5 4 5 5 4 6 7 6 6 5 5 5 5 6 7 9 9 10 11 11 11
5 6 11 4 7 14 20 19 11 5 6 9 9 4 3 2 2 2 3 3 5 4 6 5 7 6 6 10 12 11 12 10 12 10 9 9 8 5 5 5 5 3 1 0 2 3 4 4 3 3 2 2 1 1 1 2 2 2 3 4 5 5 5 5 6 6 6 6 5 5 6 6 7 7 6 6 7 7 6 6 8 10 12 13 13 12
3 8 9 8 13 13 8 3 4 4 2 5 3 4 4 7 9 7 8 7 6 10 7 3 2 7 13 14 11 7 8 10 11 11 11 8 4 3 3 3 3 4 5 4 2 3 4 4 4 3 2 1 0 0 1 1 1 1 3 4 4 5 6 5 4 4 4 4 4 5 4 5 6 6 6 6 5 4 5 8 10 9 8 6 6 9
11 14 9 7 9 13 16 19 13 10 9 8 8 13 11 11 11 10 4 3 4 6 6 6 4 3 1 1 3 6 9 8 5 3 4 3 4 4 4 4 4 5 4 3 4 4 4 4 3 3 1 0 0 0 1 1 1 1 2 4 4 5 6 5 4 4 4 4 4 5 5 5 5 5 5 5 6 5 4 4 4 5 6 7 7 6
16 18 16 16 18 21 26 7 15 12 6 7 17 16 11 7 8 9 11 10 8 6 9 11 8 4 3 2 1 4 4 7 6 4 6 4 4 4 5 7 7 5 5 4 5 4 4 3 3 3 1 0 0 0 1 1 1 1 1 3 4 5 5 5 5 4 3 4 4 5 5 5 5 5 5 5 5 5 6 5 3 7 8 6 6 5
Wind_Direction
118 151 176 185 187 190 191 182 140 184 125 127 121 128 171 162 254 278 259 232 225 41 231 227 225 224 255 260 267 277 114 266 276 261 251 253 246 242 238 235 238 236 235 251 229 223 214 212 209 208 202 207 204 204 199 204 209 208 208 200 209 210 205 202 205 204 195 198 202 208 206 207 210 208 207 204 204 204 204 200 200 206 207 201 200 199
83 164 208 196 191 184 176 129 102 82 114 137 138 143 171 175 205 230 196 335 305 147 292 26 317 256 246 259 263 271 236 262 253 256 255 254 243 242 238 245 238 239 278 269 260 233 216 214 208 201 203 197 200 208 202 208 209 207 204 206 214 208 203 207 206 201 204 205 205 197 208 207 210 205 201 208 204 202 198 195 198 207 206 204 203 197
167 199 201 206 167 120 124 124 120 134 122 95 140 148 120 230 235 280 278 313 304 95 260 13 280 271 265 264 273 265 254 253 251 231 243 239 253 245 237 242 248 254 258 263 255 231 217 214 209 203 206 207 210 207 207 212 208 206 208 213 215 211 204 209 204 201 208 208 207 205 208 203 211 207 205 207 199 194 202 200 201 206 204 206 208 199
171 252 228 139 132 132 129 111 107 88 87 123 112 142 187 200 142 236 263 5 338 173 282 343 326 283 274 263 258 263 237 239 248 241 246 235 240 244 236 231 238 244 246 249 248 236 217 210 210 207 208 210 206 212 213 208 209 209 213 213 213 212 207 208 206 206 209 205 204 209 210 206 206 207 202 206 203 203 205 207 204 203 198 202 207 202
170 6 146 130 142 144 159 166 120 131 134 295 150 150 167 171 218 148 200 306 290 24 53 326 288 283 249 252 266 274 307 268 265 279 269 262 238 250 283 303 230 236 232 242 256 248 214 207 211 206 209 199 205 211 209 204 206 208 211 211 208 209 206 206 203 205 202 194 196 200 192 178 206 72 187 199 210 209 206 207 198 197 189 199 206 205
205 236 131 133 156 147 142 166 185 136 159 193 246 181 176 163 129 52 16 55 18 335 7 50 335 275 304 289 257 268 307 282 270 285 257 254 245 241 250 251 252 242 238 232 240 241 217 215 220 216 207 203 212 213 213 206 209 209 212 208 207 210 210 209 206 199 191 197 195 188 192 199 195 205 193 198 202 189 196 202 186 182 189 198 204 203
182 173 154 154 151 147 150 178 202 160 164 152 242 167 156 140 122 110 65 74 80 188 263 49 195 277 311 294 271 273 297 278 281 257 266 264 262 240 235 243 249 240 244 238 251 256 234 232 222 223 214 212 211 220 210 208 216 214 215 207 205 208 210 208 204 193 192 200 201 200 202 203 205 210 215 211 208 205 200 186 186 193 192 195 199 203
100 126 123 136 141 155 165 184 214 174 148 211 236 152 130 122 139 158 109 114 209 288 327 39 125 244 294 252 240 250 254 271 285 281 256 259 259 249 237 237 241 245 238 241 245 251 235 231 216 224 221 217 221 220 187 213 212 208 210 205 206 209 210 207 200 195 196 201 202 202 205 206 210 210 215 199 201 193 177 187 190 187 193 196 198 199
135 155 157 157 163 163 189 194 151 152 150 216 201 160 165 156 163 126 107 145 203 60 292 310 38 311 226 274 278 206 258 260 261 268 277 260 249 253 249 240 237 241 246 230 248 251 241 230 227 232 233 226 233 219 210 213 208 208 207 206 207 211 209 207 199 199 201 204 201 203 205 210 215 211 211 181 181 184 180 190 190 191 191 194 200 201
340 168 178 162 163 193 170 128 144 159 164 273 126 50 72 78 63 109 104 118 299 85 258 196 152 230 273 232 247 323 214 254 251 255 254 256 250 250 258 259 255 274 266 242 241 254 256 243 238 229 239 235 224 221 223 227 210 207 201 203 204 212 207 204 201 201 202 203 202 206 209 212 211 202 188 165 170 182 177 190 189 193 190 191 190 199
162 341 141 117 191 143 118 99 168 163 109 120 99 85 49 42 58 35 69 94 45 269 238 201 199 160 293 172 208 187 222 202 224 265 266 265 263 263 253 259 268 265 266 263 261 262 262 264 259 241 234 238 243 223 212 216 211 204 203 205 207 213 207 202 204 200 205 202 203 210 209 211 211 200 185 166 176 178 176 190 183 181 194 187 194 197
45 81 141 248 94 104 102 97 17 66 127 128 115 131 95 20 19 39 348 36 131 263 251 164 188 148 226 280 272 262 328 289 228 223 243 262 264 252 252 260 262 262 264 269 269 272 273 288 270 255 248 241 241 223 217 217 208 203 205 204 213 216 209 204 203 202 207 204 208 213 212 212 212 199 193 194 193 183 182 189 179 184 180 194 199 183
51 147 269 345 278 135 130 99 350 49 14 82 101 107 120 172 83 250 58 227 218 219 247 121 140 1 242 248 291 276 258 274 212 220 231 242 259 277 307 290 286 263 255 260 263 264 270 262 275 261 258 258 242 228 220 216 208 207 205 205 212 221 211 208 201 204 206 206 210 210 212 215 208 205 201 201 201 190 192 186 179 170 186 161 181 192
273 299 303 206 71 259 147 146 149 133 225 149 149 161 131 134 167 200 240 336 312 284 270 144 133 270 291 291 224 232 247 240 246 234 256 268 271 280 288 291 279 270 249 254 254 258 263 268 269 258 257 252 251 243 234 226 217 212 209 207 214 225 209 208 205 208 208 213 213 210 212 212 205 209 201 202 200 192 194 188 189 179 183 174 185 176
146 226 230 165 207 182 170 180 171 148 163 190 101 149 176 127 154 189 182 190 209 203 189 290 88 239 94 239 209 230 249 271 263 255 246 246 236 236 261 269 270 273 271 255 259 260 266 267 253 258 249 246 240 237 228 220 216 208 214 211 217 225 215 202 207 205 212 214 213 212 212 212 208 207 202 203 198 185 188 190 189 189 191 187 192 193
194 160 309 94 302 145 168 147 124 100 105 224 161 69 116 228 136 141 208 136 209 210 290 199 212 196 183 267 291 213 242 263 259 263 263 278 289 310 282 258 255 258 266 271 263 267 262 253 253 244 248 247 245 244 243 226 209 201 211 207 214 217 213 204 203 210 211 214 211 212 211 212 208 204 199 198 191 189 190 186 187 189 190 191 188 175
72 204 329 346 60 159 179 147 199 152 166 209 112 211 209 137 97 97 60 71 117 42 259 166 293 275 296 296 247 275 273 277 271 246 267 273 276 286 272 265 271 273 271 274 263 259 266 269 251 237 235 242 241 247 229 228 216 217 210 209 219 223 223 210 209 210 208 210 207 210 209 206 203 197 198 197 193 189 188 186 190 185 189 181 171 167
164 146 349 59 175 316 339 178 139 18 147 105 190 215 136 121 112 132 197 352 53 186 267 132 235 282 26 282 316 11 316 282 275 279 257 224 245 256 256 276 275 269 263 263 270 270 264 258 262 255 240 228 223 216 224 227 221 220 218 211 219 225 223 225 212 212 209 209 212 208 205 203 199 198 199 195 190 183 179 187 183 166 162 178 174 164
124 82 276 297 107 356 358 107 54 8 8 154 192 186 135 231 250 281 94 235 113 252 261 286 279 267 200 240 307 311 313 286 283 262 291 278 249 243 266 270 280 286 291 283 274 274 263 247 247 252 246 240 226 222 220 215 203 208 218 219 208 220 223 223 220 224 227 219 213 208 204 200 198 197 193 189 181 175 182 183 180 179 179 159 154 153
69 125 282 324 140 203 86 145 191 186 17 76 91 138 181 103 166 143 197 174 123 224 60 287 34 252 193 216 199 236 248 262 269 286 270 259 251 247 255 267 274 286 278 280 276 269 266 254 242 233 231 230 209 200 206 208 195 210 214 214 224 240 243 236 218 208 213 211 211 207 197 200 197 192 188 183 178 182 186 185 182 177 164 172 163 164
139 111 140 220 295 135 176 211 203 161 162 137 144 183 184 145 255 117 78 148 170 173 183 257 310 261 252 212 182 207 226 233 233 245 261 261 250 239 244 258 270 270 276 273 274 282 280 273 271 267 260 278 289 250 228 201 200 204 187 202 207 210 215 216 216 210 218 204 206 198 196 193 190 192 189 185 185 185 189 186 181 179 175 154 167 159
119 166 143 165 126 207 250 264 167 170 180 180 176 191 188 151 154 159 235 40 106 113 234 152 257 255 253 173 187 198 220 217 230 222 246 305 306 266 261 252 240 283 281 267 269 269 275 284 292 299 286 265 272 243 223 215 202 199 198 210 202 212 222 212 209 203 206 207 204 206 200 196 193 191 187 188 187 190 188 180 178 168 150 169 164 164
135 95 110 153 205 172 194 66 209 263 187 198 173 214 172 175 93 140 165 238 42 244 107 157 345 278 224 187 192 203 207 219 221 85 265 277 276 272 275 275 288 249 263 277 276 271 262 267 283 299 300 281 261 259 259 264 226 198 213 203 197 214 236 224 220 198 197 193 193 203 201 191 193 187 188 186 187 186 178 172 160 157 161 157 158 165
90 110 102 32 69 298 317 290 89 115 125 278 275 80 144 192 178 166 161 176 163 201 134 299 270 248 269 199 217 210 222 319 52 170 188 247 264 278 274 304 302 310 290 267 257 251 249 248 269 309 277 277 273 261 259 263 260 239 230 233 220 215 225 222 217 198 193 191 190 181 173 182 177 178 181 183 177 169 157 151 150 154 154 155 154 155
148 235 125 114 64 6 335 352 333 325 177 237 170 158 172 112 116 138 103 96 162 213 169 149 227 262 254 346 295 259 284 279 260 247 180 210 263 267 282 283 284 277 283 278 268 262 299 294 251 233 228 235 239 237 225 222 220 204 208 211 208 215 212 199 181 174 172 165 160 159 166 171 170 171 172 165 155 156 151 154 153 156 156 152 155 156
76 170 148 161 160 172 191 198 203 204 198 157 224 166 187 176 154 134 173 182 224 226 168 190 244 233 244 307 251 265 282 275 256 230 230 203 224 267 276 273 285 284 267 278 282 289 256 246 255 250 242 239 235 229 221 217 217 221 219 223 216 217 191 195 177 172 162 160 158 162 165 167 164 169 166 158 159 160 160 156 158 156 157 159 150 151
130 154 179 169 181 193 200 184 49 87 76 186 203 178 192 186 176 167 97 126 222 163 175 223 220 72 236 226 222 250 226 231 256 273 247 217 224 237 254 264 258 263 270 273 274 270 288 269 246 241 245 244 255 251 238 221 213 214 217 222 216 200 197 185 170 170 166 170 169 165 171 167 171 165 163 166 162 154 153 158 157 157 159 160 153 152
115 185 200 179 201 202 124 154 184 142 172 195 147 192 179 171 182 183 175 221 135 104 230 234 204 227 228 224 221 227 241 257 264 259 253 264 243 223 233 255 276 279 267 263 269 263 257 271 274 254 233 224 227 224 233 227 224 211 204 208 200 189 180 178 167 169 171 169 168 172 171 173 162 161 160 149 144 153 156 151 153 152 142 145 149 153
163 192 206 170 200 78 85 136 159 161 178 174 178 172 171 186 179 194 215 218 139 197 231 186 163 227 222 217 218 219 201 206 207 221 221 198 207 212 262 265 262 262 285 291 267 257 243 256 261 265 248 243 229 232 230 222 221 223 230 227 201 178 190 180 169 170 168 166 173 177 168 156 143 129 133 137 137 138 138 138 135 135 142 144 139 138
141 227 181 185 176 82 31 162 167 159 158 158 178 177 186 174 195 206 221 213 197 220 226 134 212 224 208 203 209 224 214 205 221 12 64 156 224 216 223 248 250 261 262 261 260 260 244 246 263 273 272 247 221 219 218 218 215 208 203 204 195 192 189 158 181 167 167 174 175 160 151 149 143 140 134 140 145 148 148 146 143 143 142 140 137 134
176 203 151 163 116 154 358 67 54 109 156 179 192 182 183 193 205 214 219 215 217 255 252 265 307 271 236 212 216 245 119 67 11 258 222 224 231 215 218 232 245 249 251 250 257 254 249 260 265 275 269 259 232 221 215 216 216 207 205 193 187 194 181 178 177 179 177 182 169 162 156 152 156 150 156 159 153 149 152 150 148 147 140 135 139 141
192 235 95 128 168 228 268 100 111 78 82 144 185 193 202 206 213 220 221 202 190 229 227 247 279 256 136 192 217 211 120 162 207 227 235 238 227 221 229 241 242 244 247 250 248 252 251 243 249 248 249 251 249 224 215 206 197 190 204 193 192 185 172 187 190 186 189 178 167 166 167 165 156 158 156 151 152 153 148 141 143 145 144 142 142 143
164 122 140 159 178 211 237 157 118 104 64 302 241 211 205 202 206 210 222 210 214 219 189 204 237 210 169 165 187 204 196 209 229 231 241 249 241 217 219 227 236 245 247 253 272 275 253 239 235 235 245 258 253 229 219 198 190 207 197 189 188 160 176 190 190 187 186 177 172 172 168 161 161 159 159 162 154 152 147 149 149 149 151 153 148 140
132 132 147 153 182 153 194 140 140 106 192 223 225 211 174 189 198 205 219 218 221 192 218 219 235 150 177 167 184 198 197 213 204 226 214 213 223 224 226 227 232 239 255 263 259 255 258 250 246 242 238 238 233 224 217 193 203 205 185 175 164 177 186 188 197 193 190 178 181 174 170 166 166 165 165 158 156 155 158 159 163 161 155 145 147 153
158 149 159 164 135 157 178 137 126 205 219 235 75 137 183 196 195 206 221 220 215 212 234 250 252 222 184 194 184 197 208 220 221 237 249 227 214 234 237 236 235 242 251 261 265 249 242 245 255 248 238 234 227 220 188 204 200 166 160 167 177 187 185 195 195 201 193 187 183 173 170 168 171 168 162 163 162 165 169 167 159 161 161 156 159 159
150 134 141 53 121 59 117 155 195 220 233 302 202 194 185 196 208 209 235 239 222 213 215 230 236 228 185 206 211 222 216 243 296 260 246 250 226 231 243 248 246 239 244 238 233 248 244 233 228 227 234 228 198 201 190 194 174 169 180 172 179 182 192 192 201 204 193 192 184 180 175 172 176 171 168 168 170 174 176 170 166 163 152 150 144 137
160 154 153 143 257 149 185 190 215 2 335 268 242 213 181 194 188 184 217 241 214 218 210 225 236 234 218 165 171 62 47 53 274 261 230 229 242 232 225 238 230 230 229 246 222 235 233 217 203 221 211 200 193 186 196 172 168 168 162 176 185 181 191 196 208 205 195 194 185 180 178 180 178 176 172 173 174 181 177 168 166 161 154 150 158 156
182 162 168 155 224 116 149 183 320 265 255 246 232 127 133 123 111 137 168 271 223 208 209 220 237 225 208 151 149 137 80 172 260 256 241 219 232 232 227 240 243 234 232 241 256 250 242 226 239 248 204 219 208 196 165 166 163 164 173 184 180 184 196 202 215 204 196 197 182 181 179 180 176 172 172 174 184 181 173 163 149 162 169 166 164 165
73 127 172 168 162 115 146 189 197 211 229 240 123 154 154 131 131 121 136 264 256 198 193 197 225 219 186 162 172 139 162 207 241 245 243 211 221 201 207 219 222 225 227 225 226 242 245 230 212 229 209 207 216 196 167 161 160 167 184 183 185 193 204 216 216 197 202 193 171 173 173 175 176 175 175 182 185 176 170 172 167 151 148 147 147 147
159 155 150 174 152 187 183 196 214 207 240 210 177 162 159 137 126 126 91 249 264 127 185 186 212 211 171 172 165 174 185 217 238 242 228 190 195 203 195 218 223 225 231 224 230 227 240 211 158 211 205 213 226 168 163 158 165 179 183 188 181 198 214 214 195 181 155 149 158 165 171 176 179 178 178 179 167 161 161 141 138 153 151 141 139 140
175 157 189 186 191 193 190 218 298 275 249 175 175 165 142 140 123 128 203 230 127 157 163 187 200 205 171 175 170 187 210 211 220 184 99 162 171 246 255 248 238 212 211 173 219 192 185 207 196 214 213 221 175 158 160 158 161 187 191 183 191 216 212 181 157 155 162 157 159 167 172 172 178 172 169 163 160 147 138 146 150 145 145 141 135 135
157 150 279 125 196 190 199 204 230 265 239 165 198 164 155 106 172 207 218 138 146 155 191 182 199 197 180 185 190 204 215 220 122 90 112 147 182 219 223 239 261 340 130 190 187 164 187 188 215 246 265 190 162 159 161 161 175 186 185 185 214 215 176 160 161 161 159 166 169 170 170 172 172 167 163 153 146 148 146 141 139 145 141 139 143 147
183 176 188 192 171 51 61 200 244 252 242 144 125 242 254 182 217 123 139 57 156 174 162 195 174 174 156 192 204 212 223 215 199 210 196 190 189 220 230 217 211 196 178 164 194 219 157 172 208 213 208 186 161 165 167 166 176 184 182 207 221 174 162 162 159 161 164 164 167 171 171 170 166 164 158 158 158 151 151 150 147 146 145 146 148 150
164 186 183 200 175 176 185 195 213 224 75 140 145 176 207 199 191 148 123 176 100 156 174 145 182 175 181 177 196 214 223 209 225 224 226 232 229 243 254 256 253 222 211 220 165 166 170 172 182 185 193 165 168 163 170 167 178 181 193 227 151 147 141 148 155 153 158 167 170 168 170 169 166 160 159 157 155 154 154 160 158 156 161 160 158 160
187 200 183 191 189 189 197 206 76 177 156 176 165 188 173 197 164 199 141 155 161 216 214 143 179 185 182 185 185 193 196 208 210 199 189 214 209 203 205 214 209 213 209 187 193 186 171 170 177 155 128 126 154 170 172 180 168 179 205 232 149 153 152 148 149 154 164 172 170 170 164 160 164 163 164 165 160 160 161 159 159 159 168 162 166 170
202 186 88 72 251 299 277 205 216 166 212 235 327 292 166 193 201 109 150 145 198 162 171 165 184 178 184 170 158 182 203 201 196 195 215 227 208 187 167 171 189 177 165 137 145 158 158 130 123 141 150 160 163 178 172 173 161 176 214 176 158 153 149 149 149 162 173 169 168 168 158 157 162 164 168 169 174 172 170 167 171 168 169 175 180 182
221 154 164 192 177 165 238 233 203 216 245 219 220 300 259 190 169 166 138 217 169 156 176 83 167 174 175 164 176 182 199 188 189 208 206 212 216 191 185 178 182 179 176 194 192 131 115 124 122 134 143 187 265 210 189 169 169 171 171 157 154 150 147 151 157 161 162 169 165 158 163 166 166 166 167 172 169 167 168 170 174 171 175 183 181 184
245 193 182 188 161 189 229 224 214 184 208 208 201 185 166 187 108 187 177 183 154 162 161 151 129 143 138 175 193 178 188 180 181 196 201 207 205 176 170 160 156 159 217 137 131 124 108 119 133 141 159 217 268 240 179 159 177 167 154 152 147 142 140 149 167 169 179 175 166 170 172 175 168 166 173 180 179 174 178 186 185 184 187 187 186 182
108 106 210 171 195 221 262 349 167 89 279 272 277 263 239 191 177 198 195 163 156 155 155 99 72 167 179 193 183 171 153 193 197 189 185 191 154 139 151 155 151 155 154 133 143 133 140 139 127 154 165 215 314 116 137 157 148 163 151 152 146 144 145 160 169 164 161 163 158 171 174 171 172 178 176 180 196 214 202 189 191 199 208 220 210 201
117 185 185 136 209 224 218 215 135 159 213 214 214 217 217 213 195 186 133 111 136 144 154 132 63 46 69 15 188 188 179 177 175 125 144 134 157 154 125 115 117 115 110 117 120 122 104 112 134 139 149 278 347 127 157 176 167 186 169 148 150 148 152 154 149 151 176 169 178 174 172 174 172 173 173 178 186 196 237 273 225 226 208 210 215 225
186 189 175 188 196 215 220 170 169 197 218 197 196 206 206 191 185 176 184 188 188 177 166 150 128 102 85 6 315 164 143 147 158 123 106 106 102 107 125 135 133 138 138 142 106 87 94 96 106 110 103 17 26 138 168 176 212 145 149 156 159 159 155 144 153 166 172 178 202 194 185 172 172 174 174 174 179 189 198 226 246 229 226 216 220 223